Location: Newark
(25.6108°S, 54.5803°W)
Time: 10:12:05
(UTC+00:00)

deb Explorer IX - Pass Details

Date: 05 November 2020
Orbit: 538 x 1104 km, 38.8° (Epoch: 23 November)

Event Time Altitude Azimuth Distance (km) Brightness Sun altitude
Rises 16:18:43 0° 302° (WNW) 3,905 ? 73.6°
Reaches altitude 10° 16:21:32 10° 301° (WNW) 2,930 ? 73.1°
Maximum altitude 16:28:47 86° 212° (SSW) 1,034 ? 71.7°
Drops below altitude 10° 16:35:19 10° 122° (ESE) 2,651 ? 70.4°
Sets 16:37:46 0° 122° (ESE) 3,515 ? 69.9°
